Погода в Денвере

США     39°44′23″N   104°59′08″W
темп.,
°C
ветер,
м/с
пор.,
м/с
влажн.,
%
обл.,
%
осадки,
мм/ч
давл.,
гПа
погр.,
м
19 апреля, пн
пн1900:00+8ююз36480 0.0 1015198
03:00+6юз35465 0.0 1014129
06:00+5юз3544100 0.0 1014120
09:00+5ссв786841 0.0 1017798
12:00+2св3384100 0.2 1019719
15:00+1всв4468100 0.1 1018964
18:00−1ссв4583100 0.8 1021678
21:00−3св4695100 4.9 1025563
20 апреля, вт
вт2000:00−6с61096100 10.3 1029694
03:00−6ссз3894100 0.9 1031600
06:00−7юз239399 1.0 103260
09:00−3ююз22720 0.0 1029361
12:00−1в22665 0.0 10271052
15:000в226017 0.0 10251132
18:00+1юв125815 0.0 1023956
21:000ююз2478100 0.0 1026181
21 апреля, ср
ср2100:00−1юз118192 0.0 102691
03:00−2ссв2390100 0.1 1027295
06:00−2ссв2284100 0.3 1026456
09:00−1ссв2280100 0.2 1026661
12:00+1св1168100 0.3 1024824
15:00+3юз0165100 0.1 1021932
18:00+2всв1295100 1.4 1020238
21:00+2ююв3580100 0.9 1019657
22 апреля, чт
чт2200:00+1ююв1384100 1.0 1018215
03:000зюз2282100 0.0 1016314
06:00−1сз239038 0.1 1014208
09:00+1ссз238189 0.0 1014531
12:00+6с326365 0.0 1010744
15:00+9ссв325467 0.0 1007902
18:00+8ю2368100 0.6 1008518
21:00+7ююз2473100 0.0 1009170
23 апреля, пт
пт2300:00+5юз24770 0.0 100992
03:00+4юз3567100 0.0 100896
06:00+3юз23630 0.0 100857
09:00+8юз2345100 0.0 1006212
12:00+15з012276 0.0 10031742
15:00+15ссз8633100 0.2 10031973
18:00+14з1535100 0.6 10041905
21:00+7ссв5581100 0.8 1013800